Time,TemperatureF,DewpointF,PressureIn,WindDirection,WindDirectionDegrees,WindSpeedMPH,WindSpeedGustMPH,Humidity,HourlyPrecipIn,Conditions,Clouds,dailyrainin,SoftwareType,DateUTC
2013-04-22 00:00:00,36.9,34.5,30.17,NW,313,4.0,7.3,91,0.00,,OVC018,0.00,VWS V14.01,2013-04-22 05:00:00,
2013-04-22 00:10:00,36.7,34.3,30.16,NNW,347,4.0,9.4,91,0.00,,OVC018,0.00,VWS V14.01,2013-04-22 05:10:00,
2013-04-22 00:15:00,36.6,34.2,30.16,NW,317,2.0,9.4,91,0.00,,OVC018,0.00,VWS V14.01,2013-04-22 05:15:00,
2013-04-22 00:20:00,36.4,33.8,30.16,NW,317,4.0,8.4,90,0.00,,OVC018,0.00,VWS V14.01,2013-04-22 05:20:00,
2013-04-22 00:25:00,36.3,33.7,30.16,NW,319,4.0,6.3,90,0.00,,BKN020,0.00,VWS V14.01,2013-04-22 05:25:00,
2013-04-22 00:30:00,36.2,33.6,30.16,NW,307,4.0,6.3,90,0.00,,BKN020,0.00,VWS V14.01,2013-04-22 05:30:00,
2013-04-22 00:35:00,36.2,33.8,30.16,NW,321,4.0,9.4,91,0.00,,BKN020,0.00,VWS V14.01,2013-04-22 05:35:00,
2013-04-22 00:40:00,36.1,33.7,30.16,NW,305,7.0,8.4,91,0.00,,BKN020,0.00,VWS V14.01,2013-04-22 05:40:00,
2013-04-22 00:45:00,35.9,33.5,30.16,NW,309,8.0,8.4,91,0.00,,SCT020,0.00,VWS V14.01,2013-04-22 05:45:00,
2013-04-22 00:50:00,35.5,33.4,30.16,NW,319,4.0,8.4,92,0.00,,SCT020,0.00,VWS V14.01,2013-04-22 05:50:00,
2013-04-22 00:55:00,35.1,33.0,30.17,NW,311,6.0,8.4,92,0.00,,SCT020,0.00,VWS V14.01,2013-04-22 05:55:00,
2013-04-22 01:00:00,34.7,32.6,30.17,NW,311,4.0,8.4,92,0.00,,SCT020,0.00,VWS V14.01,2013-04-22 06:00:00,
2013-04-22 01:05:00,34.3,32.5,30.17,NW,318,3.0,8.4,93,0.00,,CLR,0.00,VWS V14.01,2013-04-22 06:05:00,
2013-04-22 01:10:00,34.1,32.3,30.18,NW,317,5.0,8.4,93,0.00,,CLR,0.00,VWS V14.01,2013-04-22 06:10:00,
2013-04-22 01:15:00,34.1,32.3,30.18,NW,317,5.0,5.2,93,0.00,,CLR,0.00,VWS V14.01,2013-04-22 06:15:00,
2013-04-22 01:20:00,33.5,31.7,30.18,WNW,303,3.0,7.3,93,0.00,,CLR,0.00,VWS V14.01,2013-04-22 06:20:00,
2013-04-22 01:25:00,33.4,31.6,30.18,NW,314,3.0,4.2,93,0.00,,CLR,0.00,VWS V14.01,2013-04-22 06:25:00,
2013-04-22 01:30:00,33.3,31.8,30.18,NW,310,2.0,4.2,94,0.00,,CLR,0.00,VWS V14.01,2013-04-22 06:30:00,
2013-04-22 01:35:00,33.1,31.6,30.18,NW,317,3.0,4.2,94,0.00,,CLR,0.00,VWS V14.01,2013-04-22 06:35:00,
2013-04-22 01:40:00,32.9,31.4,30.18,NNW,327,2.0,4.2,94,0.00,,CLR,0.00,VWS V14.01,2013-04-22 06:40:00,
2013-04-22 01:45:00,32.8,31.3,30.19,NW,317,2.0,4.2,94,0.00,,CLR,0.00,VWS V14.01,2013-04-22 06:45:00,
2013-04-22 01:50:00,32.9,31.4,30.19,NW,324,4.0,4.2,94,0.00,,CLR,0.00,VWS V14.01,2013-04-22 06:50:00,
2013-04-22 01:55:00,32.9,31.6,30.19,NW,309,3.0,7.3,95,0.00,,CLR,0.00,VWS V14.01,2013-04-22 06:55:00,
2013-04-22 02:00:00,33.0,31.7,30.19,NW,307,1.0,5.2,95,0.00,,CLR,0.00,VWS V14.01,2013-04-22 07:00:00,
2013-04-22 02:05:00,33.1,31.8,30.19,NNW,329,2.0,4.2,95,0.00,,CLR,0.00,VWS V14.01,2013-04-22 07:05:00,
2013-04-22 02:10:00,33.1,31.8,30.19,WNW,303,3.0,4.2,95,0.00,,CLR,0.00,VWS V14.01,2013-04-22 07:10:00,
2013-04-22 02:15:00,33.1,31.8,30.19,NNW,346,3.0,5.2,95,0.00,,CLR,0.00,VWS V14.01,2013-04-22 07:15:00,
2013-04-22 02:20:00,33.2,31.9,30.19,NW,319,2.0,4.2,95,0.00,,CLR,0.00,VWS V14.01,2013-04-22 07:20:00,
2013-04-22 02:25:00,33.2,31.9,30.19,NW,319,2.0,4.2,95,0.00,,CLR,0.00,VWS V14.01,2013-04-22 07:25:00,
2013-04-22 02:30:00,33.2,31.9,30.19,NNW,338,2.0,6.3,95,0.00,,CLR,0.00,VWS V14.01,2013-04-22 07:30:00,
2013-04-22 02:35:00,33.2,31.7,30.19,NW,306,2.0,3.1,94,0.00,,CLR,0.00,VWS V14.01,2013-04-22 07:35:00,
2013-04-22 02:40:00,33.3,31.8,30.19,NW,313,2.0,4.2,94,0.00,,CLR,0.00,VWS V14.01,2013-04-22 07:40:00,
2013-04-22 02:45:00,33.3,31.8,30.19,NW,315,2.0,4.2,94,0.00,,CLR,0.00,VWS V14.01,2013-04-22 07:45:00,
2013-04-22 02:50:00,33.3,31.8,30.19,NW,315,1.0,3.1,94,0.00,,CLR,0.00,VWS V14.01,2013-04-22 07:50:00,
2013-04-22 02:55:00,33.3,31.8,30.18,NW,312,4.0,4.2,94,0.00,,CLR,0.00,VWS V14.01,2013-04-22 07:55:00,
2013-04-22 03:00:00,33.4,31.9,30.19,NW,311,0.0,4.2,94,0.00,,CLR,0.00,VWS V14.01,2013-04-22 08:00:00,
2013-04-22 03:05:00,33.4,31.9,30.20,NW,311,1.0,2.1,94,0.00,,CLR,0.00,VWS V14.01,2013-04-22 08:05:00,
2013-04-22 03:10:00,33.4,31.9,30.20,NW,311,2.0,2.1,94,0.00,,CLR,0.00,VWS V14.01,2013-04-22 08:10:00,
2013-04-22 03:15:00,33.4,31.9,30.20,NW,304,3.0,5.2,94,0.00,,CLR,0.00,VWS V14.01,2013-04-22 08:15:00,
2013-04-22 03:20:00,33.4,31.9,30.20,NW,321,3.0,5.2,94,0.00,,CLR,0.00,VWS V14.01,2013-04-22 08:20:00,
2013-04-22 03:25:00,33.4,31.9,30.19,NW,317,4.0,4.2,94,0.00,,BKN016,0.00,VWS V14.01,2013-04-22 08:25:00,
2013-04-22 03:30:00,33.4,31.9,30.19,NW,316,4.0,4.2,94,0.00,,BKN016,0.00,VWS V14.01,2013-04-22 08:30:00,
2013-04-22 03:35:00,33.4,31.9,30.18,North,355,4.0,8.4,94,0.00,,BKN016,0.00,VWS V14.01,2013-04-22 08:35:00,
2013-04-22 03:40:00,33.4,31.6,30.18,NNW,340,4.0,8.4,93,0.00,,BKN016,0.00,VWS V14.01,2013-04-22 08:40:00,
2013-04-22 03:45:00,33.4,31.6,30.18,NNW,342,2.0,6.3,93,0.00,,OVC016,0.00,VWS V14.01,2013-04-22 08:45:00,
2013-04-22 03:50:00,33.4,31.6,30.19,NNW,348,2.0,5.2,93,0.00,,OVC016,0.00,VWS V14.01,2013-04-22 08:50:00,
2013-04-22 03:55:00,33.4,31.6,30.19,NNW,330,2.0,5.2,93,0.00,,OVC016,0.00,VWS V14.01,2013-04-22 08:55:00,
2013-04-22 04:00:00,33.4,31.6,30.19,NNW,330,2.0,2.1,93,0.00,,OVC016,0.00,VWS V14.01,2013-04-22 09:00:00,
2013-04-22 04:05:00,33.5,31.7,30.19,NNW,329,2.0,6.3,93,0.00,,OVC016,0.00,VWS V14.01,2013-04-22 09:05:00,
2013-04-22 04:15:00,33.5,31.4,30.20,NNW,341,2.0,3.1,92,0.00,,OVC016,0.00,VWS V14.01,2013-04-22 09:15:00,
2013-04-22 04:20:00,33.5,31.7,30.20,NNW,342,0.0,3.1,93,0.00,,OVC016,0.00,VWS V14.01,2013-04-22 09:20:00,
2013-04-22 04:25:00,33.5,31.7,30.20,NNW,336,1.0,3.1,93,0.00,,OVC014,0.00,VWS V14.01,2013-04-22 09:25:00,
2013-04-22 04:30:00,33.5,31.7,30.20,NNW,335,2.0,2.1,93,0.00,,OVC014,0.00,VWS V14.01,2013-04-22 09:30:00,
2013-04-22 04:35:00,33.5,31.7,30.20,NW,318,0.0,3.1,93,0.00,,OVC014,0.00,VWS V14.01,2013-04-22 09:35:00,
2013-04-22 04:40:00,33.4,31.6,30.21,NNW,331,2.0,3.1,93,0.00,,OVC014,0.00,VWS V14.01,2013-04-22 09:40:00,
2013-04-22 04:45:00,33.5,31.7,30.20,NNW,331,2.0,2.1,93,0.00,,OVC014,0.00,VWS V14.01,2013-04-22 09:45:00,
2013-04-22 04:50:00,33.4,31.6,30.20,NNW,329,1.0,3.1,93,0.00,,OVC014,0.00,VWS V14.01,2013-04-22 09:50:00,
2013-04-22 04:55:00,33.4,31.6,30.20,North,355,0.0,4.2,93,0.00,,OVC014,0.00,VWS V14.01,2013-04-22 09:55:00,
2013-04-22 05:00:00,33.4,31.6,30.20,NW,325,2.0,6.3,93,0.00,,OVC014,0.00,VWS V14.01,2013-04-22 10:00:00,
2013-04-22 05:05:00,33.4,31.6,30.19,North,9,0.0,4.2,93,0.00,,OVC014,0.00,VWS V14.01,2013-04-22 10:05:00,
2013-04-22 05:10:00,33.3,31.5,30.19,NNW,331,0.0,7.3,93,0.00,,OVC014,0.00,VWS V14.01,2013-04-22 10:10:00,
2013-04-22 05:15:00,33.3,31.5,30.20,NNW,332,0.0,2.1,93,0.00,,OVC014,0.00,VWS V14.01,2013-04-22 10:15:00,
2013-04-22 05:20:00,33.2,31.4,30.21,NW,304,1.0,2.1,93,0.00,,OVC014,0.00,VWS V14.01,2013-04-22 10:20:00,
2013-04-22 05:25:00,33.3,31.5,30.21,NW,315,0.0,3.1,93,0.00,,OVC014,0.00,VWS V14.01,2013-04-22 10:25:00,
2013-04-22 05:30:00,33.3,31.5,30.21,NW,314,2.0,4.2,93,0.00,,OVC014,0.00,VWS V14.01,2013-04-22 10:30:00,
2013-04-22 05:35:00,33.3,31.5,30.21,NW,325,3.0,5.2,93,0.00,,OVC014,0.00,VWS V14.01,2013-04-22 10:35:00,
2013-04-22 05:40:00,33.2,31.4,30.21,NW,307,2.0,4.2,93,0.00,,OVC014,0.00,VWS V14.01,2013-04-22 10:40:00,
2013-04-22 05:45:00,33.2,31.7,30.21,NNW,332,2.0,4.2,94,0.00,,OVC016,0.00,VWS V14.01,2013-04-22 10:45:00,
2013-04-22 05:50:00,33.1,31.6,30.22,NNW,329,1.0,5.2,94,0.00,,OVC016,0.00,VWS V14.01,2013-04-22 10:50:00,
2013-04-22 06:00:00,33.1,31.6,30.22,NNW,329,2.0,5.2,94,0.00,,OVC016,0.00,VWS V14.01,2013-04-22 11:00:00,
2013-04-22 06:05:00,33.1,31.6,30.22,NNW,333,0.0,4.2,94,0.00,,OVC018,0.00,VWS V14.01,2013-04-22 11:05:00,
2013-04-22 06:10:00,33.0,31.5,30.22,NW,325,2.0,3.1,94,0.00,,OVC018,0.00,VWS V14.01,2013-04-22 11:10:00,
2013-04-22 06:15:00,32.9,31.4,30.22,NNW,333,2.0,4.2,94,0.00,,OVC018,0.00,VWS V14.01,2013-04-22 11:15:00,
2013-04-22 06:20:00,32.9,31.4,30.22,NNW,331,3.0,4.2,94,0.00,,OVC018,0.00,VWS V14.01,2013-04-22 11:20:00,
2013-04-22 06:25:00,32.9,31.4,30.21,NNW,336,4.0,5.2,94,0.00,,OVC020,0.00,VWS V14.01,2013-04-22 11:25:00,
2013-04-22 06:30:00,32.9,31.4,30.21,North,350,6.0,9.4,94,0.00,,OVC020,0.00,VWS V14.01,2013-04-22 11:30:00,
2013-04-22 06:35:00,32.9,31.4,30.20,North,355,9.0,9.4,94,0.00,,OVC020,0.00,VWS V14.01,2013-04-22 11:35:00,
2013-04-22 06:40:00,33.0,31.5,30.20,North,360,6.0,10.5,94,0.00,,OVC020,0.00,VWS V14.01,2013-04-22 11:40:00,
2013-04-22 06:45:00,33.0,31.5,30.20,North,350,5.0,10.5,94,0.00,,OVC020,0.00,VWS V14.01,2013-04-22 11:45:00,
2013-04-22 06:50:00,33.0,31.5,30.19,NNW,339,6.0,10.5,94,0.00,,OVC020,0.00,VWS V14.01,2013-04-22 11:50:00,
2013-04-22 06:55:00,33.1,31.3,30.20,NE,36,5.0,10.5,93,0.00,,OVC020,0.00,VWS V14.01,2013-04-22 11:55:00,
2013-04-22 07:00:00,33.1,31.3,30.20,North,9,4.0,9.4,93,0.00,,OVC020,0.00,VWS V14.01,2013-04-22 12:00:00,
2013-04-22 07:05:00,33.1,31.3,30.20,NNE,17,7.0,13.6,93,0.00,,BKN020,0.00,VWS V14.01,2013-04-22 12:05:00,
2013-04-22 07:10:00,33.2,30.9,30.19,NE,39,7.0,12.6,91,0.00,,BKN020,0.00,VWS V14.01,2013-04-22 12:10:00,
2013-04-22 07:15:00,33.2,30.9,30.19,NNE,19,8.0,11.5,91,0.00,,BKN020,0.00,VWS V14.01,2013-04-22 12:15:00,
2013-04-22 07:20:00,33.2,30.9,30.19,NE,36,9.0,9.4,91,0.00,,BKN020,0.00,VWS V14.01,2013-04-22 12:20:00,
2013-04-22 07:25:00,33.2,30.9,30.19,NE,46,5.0,9.4,91,0.00,,SCT020,0.00,VWS V14.01,2013-04-22 12:25:00,
2013-04-22 07:30:00,33.2,30.9,30.20,NE,37,6.0,8.4,91,0.00,,SCT020,0.00,VWS V14.01,2013-04-22 12:30:00,
2013-04-22 07:35:00,33.4,30.8,30.20,NE,43,5.0,9.4,90,0.00,,SCT020,0.00,VWS V14.01,2013-04-22 12:35:00,
2013-04-22 07:40:00,33.7,30.8,30.20,North,10,5.0,10.5,89,0.00,,SCT020,0.00,VWS V14.01,2013-04-22 12:40:00,
2013-04-22 07:45:00,34.1,31.5,30.20,NNE,32,6.0,8.4,90,0.00,,SCT020,0.00,VWS V14.01,2013-04-22 12:45:00,
2013-04-22 07:50:00,34.4,31.5,30.20,North,355,6.0,11.5,89,0.00,,SCT020,0.00,VWS V14.01,2013-04-22 12:50:00,
2013-04-22 07:55:00,34.6,31.7,30.20,North,351,5.0,9.4,89,0.00,,SCT020,0.00,VWS V14.01,2013-04-22 12:55:00,
2013-04-22 08:00:00,34.3,31.4,30.19,NE,38,10.0,14.7,89,0.00,,SCT020,0.00,VWS V14.01,2013-04-22 13:00:00,
2013-04-22 08:05:00,34.0,31.1,30.19,North,11,11.0,13.6,89,0.00,,CLR,0.00,VWS V14.01,2013-04-22 13:05:00,
2013-04-22 08:10:00,33.9,31.3,30.20,NNW,346,8.0,12.6,90,0.00,,CLR,0.00,VWS V14.01,2013-04-22 13:10:00,
2013-04-22 08:15:00,34.0,31.4,30.20,NE,51,6.0,10.5,90,0.00,,CLR,0.00,VWS V14.01,2013-04-22 13:15:00,
2013-04-22 08:20:00,34.1,31.5,30.20,North,355,6.0,11.5,90,0.00,,CLR,0.00,VWS V14.01,2013-04-22 13:20:00,
2013-04-22 08:25:00,34.2,31.6,30.21,North,355,5.0,13.6,90,0.00,,SCT020,0.00,VWS V14.01,2013-04-22 13:25:00,
2013-04-22 08:30:00,34.1,31.2,30.21,North,351,11.0,13.6,89,0.00,,SCT020,0.00,VWS V14.01,2013-04-22 13:30:00,
2013-04-22 08:35:00,34.1,31.2,30.21,North,10,7.0,14.7,89,0.00,,SCT020,0.00,VWS V14.01,2013-04-22 13:35:00,
2013-04-22 08:40:00,34.2,31.3,30.21,NNE,31,8.0,10.5,89,0.00,,SCT020,0.00,VWS V14.01,2013-04-22 13:40:00,
2013-04-22 08:45:00,34.3,31.4,30.21,North,5,5.0,11.5,89,0.00,,SCT110,0.00,VWS V14.01,2013-04-22 13:45:00,
2013-04-22 08:50:00,34.3,31.7,30.21,NNE,29,8.0,10.5,90,0.00,,SCT110,0.00,VWS V14.01,2013-04-22 13:50:00,
2013-04-22 08:55:00,34.3,31.4,30.21,North,5,8.0,11.5,89,0.00,,SCT110,0.00,VWS V14.01,2013-04-22 13:55:00,
2013-04-22 09:00:00,34.4,31.8,30.21,NNE,28,11.0,12.6,90,0.00,,SCT110,0.00,VWS V14.01,2013-04-22 14:00:00,
2013-04-22 09:05:00,34.5,31.6,30.21,NNW,346,10.0,13.6,89,0.00,,OVC110,0.00,VWS V14.01,2013-04-22 14:05:00,
2013-04-22 09:10:00,34.6,31.7,30.21,NNE,30,12.0,13.6,89,0.00,,OVC110,0.00,VWS V14.01,2013-04-22 14:10:00,
2013-04-22 09:15:00,34.6,31.4,30.22,ENE,57,12.0,13.6,88,0.00,,OVC110,0.00,VWS V14.01,2013-04-22 14:15:00,
2013-04-22 09:20:00,34.6,31.4,30.23,North,360,9.0,13.6,88,0.00,,OVC110,0.00,VWS V14.01,2013-04-22 14:20:00,
2013-04-22 09:25:00,34.6,31.4,30.23,North,355,6.0,12.6,88,0.00,,OVC100,0.00,VWS V14.01,2013-04-22 14:25:00,
2013-04-22 09:30:00,34.6,31.4,30.23,North,360,11.0,15.7,88,0.00,,OVC100,0.00,VWS V14.01,2013-04-22 14:30:00,
2013-04-22 09:35:00,34.7,31.5,30.23,NNE,12,7.0,12.6,88,0.00,,OVC100,0.00,VWS V14.01,2013-04-22 14:35:00,
2013-04-22 09:40:00,34.7,31.5,30.22,NNW,344,9.0,13.6,88,0.00,,OVC100,0.00,VWS V14.01,2013-04-22 14:40:00,
2013-04-22 09:45:00,34.7,31.5,30.22,North,355,6.0,14.7,88,0.00,,OVC100,0.00,VWS V14.01,2013-04-22 14:45:00,
2013-04-22 09:50:00,34.8,31.9,30.22,NNE,28,8.0,13.6,89,0.00,,OVC100,0.00,VWS V14.01,2013-04-22 14:50:00,
2013-04-22 09:55:00,34.8,31.6,30.23,North,349,8.0,11.5,88,0.00,,OVC100,0.00,VWS V14.01,2013-04-22 14:55:00,
2013-04-22 10:00:00,34.7,31.5,30.24,NNW,329,4.0,13.6,88,0.00,,OVC100,0.00,VWS V14.01,2013-04-22 15:00:00,
2013-04-22 10:05:00,34.8,31.6,30.25,North,360,9.0,11.5,88,0.00,,OVC060,0.00,VWS V14.01,2013-04-22 15:05:00,
2013-04-22 10:10:00,34.8,31.9,30.26,NNW,340,5.0,9.4,89,0.00,,OVC060,0.00,VWS V14.01,2013-04-22 15:10:00,
2013-04-22 10:15:00,34.8,31.6,30.26,NNE,24,5.0,10.5,88,0.00,,OVC060,0.00,VWS V14.01,2013-04-22 15:15:00,
2013-04-22 10:20:00,34.9,31.7,30.26,NNW,348,8.0,13.6,88,0.00,,OVC060,0.00,VWS V14.01,2013-04-22 15:20:00,
2013-04-22 10:25:00,35.1,32.2,30.26,NNW,333,5.0,8.4,89,0.00,,OVC060,0.00,VWS V14.01,2013-04-22 15:25:00,
2013-04-22 10:30:00,35.5,32.3,30.26,North,360,9.0,10.5,88,0.00,,OVC060,0.00,VWS V14.01,2013-04-22 15:30:00,
2013-04-22 10:35:00,35.7,32.5,30.25,NNW,345,9.0,12.6,88,0.00,,OVC060,0.00,VWS V14.01,2013-04-22 15:35:00,
2013-04-22 10:40:00,35.8,32.6,30.24,North,355,12.0,16.8,88,0.00,,OVC060,0.00,VWS V14.01,2013-04-22 15:40:00,
2013-04-22 10:45:00,35.9,32.4,30.23,NE,36,13.0,15.7,87,0.00,,OVC060,0.00,VWS V14.01,2013-04-22 15:45:00,
2013-04-22 10:50:00,35.9,32.4,30.23,NE,34,10.0,16.8,87,0.00,,OVC060,0.00,VWS V14.01,2013-04-22 15:50:00,
2013-04-22 10:55:00,36.0,32.2,30.23,North,355,5.0,14.7,86,0.00,,OVC060,0.00,VWS V14.01,2013-04-22 15:55:00,
2013-04-22 11:00:00,36.1,32.3,30.22,NE,56,11.0,15.7,86,0.00,,OVC060,0.00,VWS V14.01,2013-04-22 16:00:00,
2013-04-22 11:05:00,35.9,32.1,30.22,North,351,16.0,16.8,86,0.00,,OVC060,0.00,VWS V14.01,2013-04-22 16:05:00,
2013-04-22 11:10:00,36.0,32.5,30.21,NE,34,14.0,19.9,87,0.00,,OVC060,0.00,VWS V14.01,2013-04-22 16:10:00,
2013-04-22 11:15:00,36.2,32.7,30.21,North,5,11.0,16.8,87,0.00,,OVC060,0.00,VWS V14.01,2013-04-22 16:15:00,
2013-04-22 11:20:00,36.2,32.4,30.22,NE,40,18.0,22.0,86,0.00,,OVC060,0.00,VWS V14.01,2013-04-22 16:20:00,
2013-04-22 11:25:00,36.3,32.2,30.22,North,5,12.0,18.9,85,0.00,,OVC070,0.00,VWS V14.01,2013-04-22 16:25:00,
2013-04-22 11:30:00,36.4,32.6,30.22,North,350,10.0,15.7,86,0.00,,OVC070,0.00,VWS V14.01,2013-04-22 16:30:00,
2013-04-22 11:35:00,36.2,32.1,30.22,NNW,348,16.0,17.8,85,0.00,,OVC070,0.00,VWS V14.01,2013-04-22 16:35:00,
2013-04-22 11:40:00,36.2,32.4,30.21,North,360,9.0,17.8,86,0.00,,OVC070,0.00,VWS V14.01,2013-04-22 16:40:00,
2013-04-22 11:45:00,36.4,32.3,30.20,NNW,342,16.0,18.9,85,0.00,,OVC070,0.00,VWS V14.01,2013-04-22 16:45:00,
2013-04-22 11:50:00,36.4,32.6,30.19,North,355,13.0,19.9,86,0.00,,OVC070,0.00,VWS V14.01,2013-04-22 16:50:00,
2013-04-22 11:55:00,36.6,32.8,30.19,North,349,10.0,19.9,86,0.00,,OVC070,0.00,VWS V14.01,2013-04-22 16:55:00,
2013-04-22 12:00:00,36.4,32.3,30.19,North,355,14.0,24.1,85,0.00,,OVC070,0.00,VWS V14.01,2013-04-22 17:00:00,
2013-04-22 12:05:00,36.3,32.5,30.19,North,355,16.0,22.0,86,0.00,,OVC060,0.00,VWS V14.01,2013-04-22 17:05:00,
2013-04-22 12:10:00,36.1,32.3,30.18,North,360,13.0,19.9,86,0.00,,OVC060,0.00,VWS V14.01,2013-04-22 17:10:00,
2013-04-22 12:15:00,36.2,32.7,30.18,NNW,344,16.0,25.2,87,0.00,,OVC060,0.00,VWS V14.01,2013-04-22 17:15:00,
2013-04-22 12:20:00,36.1,32.9,30.17,North,350,16.0,22.0,88,0.00,,OVC060,0.00,VWS V14.01,2013-04-22 17:20:00,
2013-04-22 12:25:00,36.0,32.5,30.17,NNE,17,16.0,22.0,87,0.00,,OVC050,0.00,VWS V14.01,2013-04-22 17:25:00,
2013-04-22 12:30:00,35.9,32.4,30.18,North,10,9.0,19.9,87,0.00,,OVC050,0.00,VWS V14.01,2013-04-22 17:30:00,
2013-04-22 12:35:00,35.9,32.4,30.20,North,355,12.0,16.8,87,0.00,,OVC050,0.00,VWS V14.01,2013-04-22 17:35:00,
2013-04-22 12:40:00,35.9,32.7,30.20,North,360,16.0,17.8,88,0.00,,OVC050,0.00,VWS V14.01,2013-04-22 17:40:00,
2013-04-22 12:45:00,36.1,32.6,30.20,NNW,345,8.0,16.8,87,0.00,,OVC050,0.00,VWS V14.01,2013-04-22 17:45:00,
2013-04-22 12:50:00,36.2,32.7,30.21,NNW,344,9.0,15.7,87,0.00,,OVC050,0.00,VWS V14.01,2013-04-22 17:50:00,
2013-04-22 12:55:00,36.3,32.8,30.20,North,355,13.0,18.9,87,0.00,,OVC050,0.00,VWS V14.01,2013-04-22 17:55:00,
2013-04-22 13:00:00,36.3,32.5,30.20,NNE,15,8.0,16.8,86,0.00,,OVC050,0.00,VWS V14.01,2013-04-22 18:00:00,
2013-04-22 13:05:00,36.3,32.5,30.21,NNE,15,8.0,8.4,86,0.00,,,0.00,VWS V14.01,2013-04-22 18:05:00,
2013-04-22 13:10:00,36.2,32.4,30.22,NNW,347,12.0,18.9,86,0.00,,,0.00,VWS V14.01,2013-04-22 18:10:00,
2013-04-22 13:15:00,36.3,32.2,30.22,NNW,333,8.0,14.7,85,0.00,,,0.00,VWS V14.01,2013-04-22 18:15:00,
2013-04-22 13:20:00,36.3,32.5,30.22,North,350,9.0,13.6,86,0.00,,,0.00,VWS V14.01,2013-04-22 18:20:00,
2013-04-22 13:25:00,36.4,32.3,30.22,North,355,6.0,16.8,85,0.00,,,0.00,VWS V14.01,2013-04-22 18:25:00,
2013-04-22 13:30:00,36.3,32.5,30.22,North,349,10.0,14.7,86,0.00,,,0.00,VWS V14.01,2013-04-22 18:30:00,
2013-04-22 13:35:00,36.1,32.3,30.22,NNW,336,8.0,15.7,86,0.00,,,0.00,VWS V14.01,2013-04-22 18:35:00,
2013-04-22 13:40:00,35.7,32.2,30.22,NNW,336,12.0,17.8,87,0.00,,,0.00,VWS V14.01,2013-04-22 18:40:00,
2013-04-22 13:45:00,35.1,31.9,30.21,North,355,9.0,13.6,88,0.00,,,0.00,VWS V14.01,2013-04-22 18:45:00,
2013-04-22 13:50:00,34.3,31.7,30.21,North,355,10.0,15.7,90,0.00,,,0.00,VWS V14.01,2013-04-22 18:50:00,
2013-04-22 13:55:00,33.7,31.6,30.21,North,355,16.0,21.0,92,0.01,,,0.01,VWS V14.01,2013-04-22 18:55:00,
2013-04-22 14:00:00,33.1,31.3,30.21,NNW,339,11.0,24.1,93,0.01,,,0.01,VWS V14.01,2013-04-22 19:00:00,
2013-04-22 14:05:00,32.8,31.3,30.21,NNE,22,12.0,22.0,94,0.01,,,0.01,VWS V14.01,2013-04-22 19:05:00,
2013-04-22 14:10:00,32.7,31.4,30.21,North,355,14.0,21.0,95,0.01,,,0.01,VWS V14.01,2013-04-22 19:10:00,
2013-04-22 14:15:00,32.6,31.3,30.20,NE,36,16.0,22.0,95,0.01,,,0.01,VWS V14.01,2013-04-22 19:15:00,
2013-04-22 14:20:00,32.6,31.3,30.20,NE,34,15.0,19.9,95,0.01,,,0.01,VWS V14.01,2013-04-22 19:20:00,
2013-04-22 14:25:00,32.6,31.3,30.20,North,355,13.0,21.0,95,0.01,,,0.01,VWS V14.01,2013-04-22 19:25:00,
2013-04-22 14:30:00,32.5,31.2,30.20,NNE,23,19.0,19.9,95,0.01,,,0.01,VWS V14.01,2013-04-22 19:30:00,
2013-04-22 14:35:00,32.5,31.5,30.20,NNE,15,13.0,19.9,96,0.01,,,0.01,VWS V14.01,2013-04-22 19:35:00,
2013-04-22 14:40:00,32.3,31.3,30.21,NNE,29,13.0,17.8,96,0.01,,,0.01,VWS V14.01,2013-04-22 19:40:00,
2013-04-22 14:45:00,32.3,31.3,30.20,NE,34,13.0,18.9,96,0.01,,,0.01,VWS V14.01,2013-04-22 19:45:00,
2013-04-22 14:50:00,32.2,31.2,30.20,NNW,344,12.0,18.9,96,0.01,,,0.01,VWS V14.01,2013-04-22 19:50:00,
2013-04-22 14:55:00,32.2,31.2,30.20,North,360,11.0,16.8,96,0.01,,,0.01,VWS V14.01,2013-04-22 19:55:00,
2013-04-22 15:00:00,32.1,31.1,30.20,NE,37,9.0,14.7,96,0.00,,,0.01,VWS V14.01,2013-04-22 20:00:00,
2013-04-22 15:05:00,32.1,31.1,30.20,North,5,11.0,15.7,96,0.00,,,0.01,VWS V14.01,2013-04-22 20:05:00,
2013-04-22 15:10:00,32.1,31.1,30.19,NNE,14,9.0,15.7,96,0.00,,,0.01,VWS V14.01,2013-04-22 20:10:00,
2013-04-22 15:15:00,32.0,31.2,30.19,North,5,15.0,18.9,97,0.00,,,0.01,VWS V14.01,2013-04-22 20:15:00,
2013-04-22 15:20:00,32.0,31.2,30.20,North,5,12.0,15.7,97,0.00,,,0.01,VWS V14.01,2013-04-22 20:20:00,
2013-04-22 15:25:00,31.9,31.1,30.20,NNE,26,11.0,16.8,97,0.00,,,0.01,VWS V14.01,2013-04-22 20:25:00,
2013-04-22 15:30:00,31.9,31.1,30.20,NE,55,10.0,15.7,97,0.00,,,0.01,VWS V14.01,2013-04-22 20:30:00,
2013-04-22 15:35:00,31.8,31.0,30.20,North,355,9.0,14.7,97,0.00,,,0.01,VWS V14.01,2013-04-22 20:35:00,
2013-04-22 15:40:00,31.8,31.0,30.20,North,360,13.0,13.6,97,0.00,,,0.01,VWS V14.01,2013-04-22 20:40:00,
2013-04-22 15:45:00,31.7,31.0,30.20,NNW,340,12.0,13.6,97,0.00,,,0.01,VWS V14.01,2013-04-22 20:45:00,
2013-04-22 15:50:00,31.7,31.0,30.20,NE,38,11.0,15.7,97,0.00,,,0.01,VWS V14.01,2013-04-22 20:50:00,
2013-04-22 15:55:00,31.7,31.0,30.20,North,5,5.0,13.6,97,0.00,,,0.01,VWS V14.01,2013-04-22 20:55:00,
2013-04-22 16:00:00,31.7,31.0,30.20,NNW,346,10.0,13.6,97,0.00,,,0.01,VWS V14.01,2013-04-22 21:00:00,
2013-04-22 16:05:00,31.8,31.0,30.20,NNE,24,6.0,12.6,97,0.00,,,0.01,VWS V14.01,2013-04-22 21:05:00,
2013-04-22 16:10:00,31.9,31.1,30.20,NNW,346,6.0,12.6,97,0.00,,,0.01,VWS V14.01,2013-04-22 21:10:00,
2013-04-22 16:15:00,31.9,31.1,30.19,North,360,8.0,11.5,97,0.00,,,0.01,VWS V14.01,2013-04-22 21:15:00,
2013-04-22 16:20:00,31.7,31.0,30.19,ENE,65,14.0,16.8,97,0.00,,,0.01,VWS V14.01,2013-04-22 21:20:00,
2013-04-22 16:30:00,31.6,30.9,30.19,NNE,29,9.0,14.7,97,0.00,,,0.01,VWS V14.01,2013-04-22 21:30:00,
2013-04-22 16:40:00,31.9,31.1,30.19,NNW,348,8.0,13.6,97,0.00,,,0.01,VWS V14.01,2013-04-22 21:40:00,
2013-04-22 16:45:00,32.0,31.2,30.20,North,350,11.0,12.6,97,0.00,,,0.01,VWS V14.01,2013-04-22 21:45:00,
2013-04-22 16:50:00,32.1,31.4,30.20,NNW,344,8.0,12.6,97,0.00,,,0.01,VWS V14.01,2013-04-22 21:50:00,
2013-04-22 17:00:00,31.9,31.1,30.20,NNW,346,8.0,12.6,97,0.00,,,0.01,VWS V14.01,2013-04-22 22:00:00,
2013-04-22 17:05:00,31.8,31.0,30.21,NNW,338,9.0,13.6,97,0.00,,,0.01,VWS V14.01,2013-04-22 22:05:00,
2013-04-22 17:10:00,31.7,31.0,30.21,NNW,346,12.0,16.8,97,0.00,,,0.01,VWS V14.01,2013-04-22 22:10:00,
2013-04-22 17:15:00,31.7,31.0,30.21,NW,322,12.0,17.8,97,0.00,,,0.01,VWS V14.01,2013-04-22 22:15:00,
2013-04-22 17:20:00,31.4,30.6,30.21,North,5,17.0,21.0,97,0.00,,,0.01,VWS V14.01,2013-04-22 22:20:00,
2013-04-22 17:25:00,31.4,30.6,30.21,NNW,336,10.0,21.0,97,0.00,,,0.01,VWS V14.01,2013-04-22 22:25:00,
2013-04-22 17:30:00,31.5,30.8,30.21,North,355,13.0,18.9,97,0.00,,,0.01,VWS V14.01,2013-04-22 22:30:00,
2013-04-22 17:35:00,31.5,30.8,30.21,NNE,19,9.0,16.8,97,0.00,,,0.01,VWS V14.01,2013-04-22 22:35:00,
2013-04-22 17:40:00,31.5,30.8,30.21,North,351,9.0,21.0,97,0.00,,,0.01,VWS V14.01,2013-04-22 22:40:00,
2013-04-22 17:50:00,31.4,30.6,30.21,NNE,22,14.0,17.8,97,0.00,,,0.01,VWS V14.01,2013-04-22 22:50:00,
2013-04-22 17:55:00,31.3,30.5,30.21,NNW,340,8.0,17.8,97,0.00,,,0.01,VWS V14.01,2013-04-22 22:55:00,
2013-04-22 18:00:00,31.2,30.5,30.21,NW,325,14.0,17.8,97,0.00,,,0.01,VWS V14.01,2013-04-22 23:00:00,
2013-04-22 18:05:00,31.1,30.4,30.21,North,5,14.0,16.8,97,0.00,,,0.01,VWS V14.01,2013-04-22 23:05:00,
2013-04-22 18:10:00,31.2,30.5,30.21,NNW,342,10.0,16.8,97,0.00,,,0.01,VWS V14.01,2013-04-22 23:10:00,
2013-04-22 18:20:00,31.2,30.5,30.21,North,350,8.0,13.6,97,0.00,,,0.01,VWS V14.01,2013-04-22 23:20:00,
2013-04-22 18:30:00,31.3,30.5,30.22,NNW,348,6.0,10.5,97,0.00,,,0.01,VWS V14.01,2013-04-22 23:30:00,
2013-04-22 18:40:00,31.3,30.5,30.22,NNW,334,6.0,10.5,97,0.01,,,0.02,VWS V14.01,2013-04-22 23:40:00,
2013-04-22 18:45:00,31.3,30.5,30.22,NNW,346,6.0,9.4,97,0.01,,,0.02,VWS V14.01,2013-04-22 23:45:00,
2013-04-22 18:55:00,31.3,30.5,30.23,NNW,346,5.0,8.4,97,0.01,,,0.02,VWS V14.01,2013-04-22 23:55:00,
2013-04-22 19:00:00,31.3,30.5,30.23,North,355,5.0,8.4,97,0.01,,,0.02,VWS V14.01,2013-04-23 00:00:00,
2013-04-22 19:05:00,31.3,30.5,30.23,NNW,329,3.0,6.3,97,0.01,,,0.02,VWS V14.01,2013-04-23 00:05:00,
2013-04-22 19:10:00,31.4,30.6,30.23,NNW,342,4.0,5.2,97,0.01,,,0.02,VWS V14.01,2013-04-23 00:10:00,
2013-04-22 19:15:00,31.4,30.6,30.23,NNW,333,5.0,9.4,97,0.01,,,0.02,VWS V14.01,2013-04-23 00:15:00,
2013-04-22 19:20:00,31.4,30.6,30.23,NNW,347,12.0,12.6,97,0.01,,,0.02,VWS V14.01,2013-04-23 00:20:00,
2013-04-22 19:25:00,31.4,30.6,30.23,NNW,342,10.0,12.6,97,0.01,,,0.02,VWS V14.01,2013-04-23 00:25:00,
2013-04-22 19:30:00,31.3,30.5,30.23,NNW,346,9.0,12.6,97,0.01,,,0.02,VWS V14.01,2013-04-23 00:30:00,
2013-04-22 19:40:00,31.3,30.5,30.23,NNW,338,5.0,10.5,97,0.00,,,0.02,VWS V14.01,2013-04-23 00:40:00,
2013-04-22 19:50:00,31.3,30.5,30.23,NNW,336,5.0,10.5,97,0.00,,,0.02,VWS V14.01,2013-04-23 00:50:00,
2013-04-22 20:00:00,31.2,30.7,30.23,NNW,346,5.0,8.4,98,0.00,,,0.02,VWS V14.01,2013-04-23 01:00:00,
2013-04-22 20:10:00,31.3,30.8,30.23,NNW,337,6.0,8.4,98,0.00,,,0.02,VWS V14.01,2013-04-23 01:10:00,
2013-04-22 20:15:00,31.2,30.5,30.23,NNW,340,5.0,9.4,97,0.00,,,0.02,VWS V14.01,2013-04-23 01:15:00,
2013-04-22 20:20:00,31.1,30.4,30.23,NNW,342,6.0,9.4,97,0.00,,,0.02,VWS V14.01,2013-04-23 01:20:00,
2013-04-22 20:25:00,30.9,30.4,30.23,NNW,338,9.0,10.5,98,0.00,,,0.02,VWS V14.01,2013-04-23 01:25:00,
2013-04-22 20:35:00,30.7,30.0,30.23,NNW,344,5.0,10.5,97,0.00,,,0.02,VWS V14.01,2013-04-23 01:35:00,
2013-04-22 20:40:00,30.6,29.9,30.24,NNW,336,9.0,11.5,97,0.00,,,0.02,VWS V14.01,2013-04-23 01:40:00,
2013-04-22 20:50:00,30.4,29.9,30.24,NNW,329,6.0,11.5,98,0.00,,,0.02,VWS V14.01,2013-04-23 01:50:00,
2013-04-22 20:55:00,30.3,29.8,30.24,NNW,333,6.0,13.6,98,0.00,,,0.02,VWS V14.01,2013-04-23 01:55:00,
2013-04-22 21:00:00,30.2,29.5,30.24,NW,319,6.0,12.6,97,0.00,,,0.02,VWS V14.01,2013-04-23 02:00:00,
2013-04-22 21:10:00,30.0,29.2,30.24,NW,305,8.0,12.6,97,0.00,,,0.02,VWS V14.01,2013-04-23 02:10:00,
2013-04-22 21:20:00,29.9,29.1,30.25,NW,317,6.0,10.5,97,0.00,,,0.02,VWS V14.01,2013-04-23 02:20:00,
2013-04-22 21:25:00,29.9,29.1,30.25,NNW,327,6.0,11.5,97,0.00,,,0.02,VWS V14.01,2013-04-23 02:25:00,
2013-04-22 21:35:00,29.9,29.1,30.26,NW,323,5.0,8.4,97,0.00,,,0.02,VWS V14.01,2013-04-23 02:35:00,
2013-04-22 21:40:00,29.9,29.1,30.26,NW,314,8.0,9.4,97,0.00,,,0.02,VWS V14.01,2013-04-23 02:40:00,
2013-04-22 21:45:00,29.9,29.1,30.26,NNW,334,6.0,9.4,97,0.00,,,0.02,VWS V14.01,2013-04-23 02:45:00,
2013-04-22 21:50:00,29.9,29.1,30.26,NNW,336,6.0,9.4,97,0.00,,,0.02,VWS V14.01,2013-04-23 02:50:00,
2013-04-22 21:55:00,29.8,29.0,30.26,NW,315,4.0,9.4,97,0.00,,,0.02,VWS V14.01,2013-04-23 02:55:00,
2013-04-22 22:05:00,29.9,29.1,30.27,NW,315,5.0,9.4,97,0.00,,OVC048,0.02,VWS V14.01,2013-04-23 03:05:00,
2013-04-22 22:10:00,29.9,29.1,30.27,NW,315,5.0,5.2,97,0.00,,OVC048,0.02,VWS V14.01,2013-04-23 03:10:00,
2013-04-22 22:15:00,29.9,29.1,30.26,NW,319,3.0,7.3,97,0.00,,OVC048,0.02,VWS V14.01,2013-04-23 03:15:00,
2013-04-22 22:20:00,29.9,29.1,30.27,WNW,302,4.0,7.3,97,0.00,,OVC048,0.02,VWS V14.01,2013-04-23 03:20:00,
2013-04-22 22:25:00,29.9,29.1,30.26,NW,321,5.0,7.3,97,0.00,,OVC050,0.02,VWS V14.01,2013-04-23 03:25:00,
2013-04-22 22:35:00,29.8,29.0,30.26,NW,315,6.0,8.4,97,0.00,,OVC050,0.02,VWS V14.01,2013-04-23 03:35:00,
2013-04-22 22:40:00,29.7,29.0,30.26,NNW,333,4.0,8.4,97,0.00,,OVC050,0.02,VWS V14.01,2013-04-23 03:40:00,
2013-04-22 22:45:00,29.7,29.0,30.26,NW,322,4.0,8.4,97,0.00,,OVC050,0.02,VWS V14.01,2013-04-23 03:45:00,
2013-04-22 22:50:00,29.8,29.0,30.26,NW,309,5.0,7.3,97,0.00,,OVC050,0.02,VWS V14.01,2013-04-23 03:50:00,
2013-04-22 22:55:00,29.7,29.0,30.25,NNW,341,5.0,8.4,97,0.00,,OVC050,0.02,VWS V14.01,2013-04-23 03:55:00,
2013-04-22 23:00:00,29.7,29.0,30.25,NW,321,4.0,8.4,97,0.00,,OVC050,0.02,VWS V14.01,2013-04-23 04:00:00,
2013-04-22 23:05:00,29.6,28.9,30.25,WNW,297,4.0,7.3,97,0.00,,BKN100,0.02,VWS V14.01,2013-04-23 04:05:00,
2013-04-22 23:10:00,29.4,28.7,30.25,NNW,342,6.0,8.4,97,0.00,,BKN100,0.02,VWS V14.01,2013-04-23 04:10:00,
2013-04-22 23:15:00,29.4,28.4,30.25,NW,311,5.0,9.4,96,0.00,,BKN100,0.02,VWS V14.01,2013-04-23 04:15:00,
2013-04-22 23:20:00,29.4,28.4,30.25,NW,311,9.0,10.5,96,0.00,,BKN100,0.02,VWS V14.01,2013-04-23 04:20:00,
2013-04-22 23:30:00,29.2,28.2,30.26,NW,314,9.0,10.5,96,0.00,,BKN110,0.02,VWS V14.01,2013-04-23 04:30:00,
2013-04-22 23:35:00,29.1,28.1,30.26,WNW,298,8.0,10.5,96,0.00,,BKN110,0.02,VWS V14.01,2013-04-23 04:35:00,
2013-04-22 23:40:00,29.1,28.1,30.26,NW,317,8.0,11.5,96,0.00,,BKN110,0.02,VWS V14.01,2013-04-23 04:40:00,
2013-04-22 23:50:00,29.1,28.1,30.26,NW,314,8.0,10.5,96,0.00,,OVC060,0.02,VWS V14.01,2013-04-23 04:50:00,